Regional Weather Roundup
Issued by NWS

Home | Current Version | Previous Version | Graphics & Text | Print | Product List | Glossary On
Versions: 1 2 3 4 5 6 7 8 9 10 11 12 13 14 15 16 17 18 19 20 21 22 23 24 25 26 27 28 29 30 31 32 33 34 35 36 37 38 39 40 41 42 43 44 45 46 47 48 49 50
000
ASUS43 KLOT 220108
RWRIL

ILLINOIS REGIONAL WEATHER ROUNDUP
NATIONAL WEATHER SERVICE CHICAGO/ROMEOVILLE IL
800 PM CDT SAT APR 21 2018

NOTE: "FAIR" INDICATES FEW OR NO CLOUDS BELOW 12,000 FEET WITH NO
SIGNIFICANT WEATHER AND/OR OBSTRUCTIONS TO VISIBILITY.

* THESE STATIONS ARE NOT UNDER NWS QUALITY CONTROL. THEY ALSO MAY NOT
  REPORT WEATHER SUCH AS PRECIPITATION OR FOG.

ILZ001-002-007-009-015-016-024-220200-
NORTHWEST ILLINOIS

CITY           SKY/WX    TMP DP  RH WIND       PRES   REMARKS
MOLINE         FAIR      55  32  41 E15       30.31S
STERLING*      FAIR      50  35  56 E5        30.35R
SAVANNA*       FAIR      50  36  57 E5        30.35R
$$

ILZ003-004-008-010-011-017-018-220200-
NORTH CENTRAL ILLINOIS

CITY           SKY/WX    TMP DP  RH WIND       PRES   REMARKS
ROCKFORD       CLOUDY    52  30  43 NE7       30.37R
FREEPORT*      FAIR      49  35  59 NE5       30.36S
ROCHELLE*      FAIR      50  33  51 E6        30.34F
DE KALB*       FAIR      49  29  45 E9        30.35F
PERU*          FAIR      54  32  43 E8        30.34R
$$

ILZ005-006-012>014-019>023-220200-
NORTHEAST ILLINOIS

CITY           SKY/WX    TMP DP  RH WIND       PRES   REMARKS
CHICAGO-OHARE  CLOUDY    48  17  29 E7        30.36S
CHICAGO-MIDWAY MOCLDY    47  17  30 E8        30.37S
AURORA         FAIR      50  25  37 E9        30.35R
LANSING*       FAIR      45  26  48 NE7       30.37S
JOLIET*        FAIR      51  26  38 NE6       30.36R
WAUKEGAN       CLOUDY    43  24  47 SE3       30.37R
DUPAGE AIRPORT FAIR      48  22  35 E7        30.36R
KANKAKEE*      FAIR      51  32  48 E8        30.35S
WHEELING       FAIR      47  18  31 NE5       30.39S
MORRIS*        FAIR      49  32  53 NE6       30.33F
ROMEOVILLE*    FAIR      47  26  43 NE8       30.36R
NORTHERLY ISL    N/A     42  20  41 MISG        N/A
$$

LMZ740>746-220200-
SOUTHERN LAKE MICHIGAN

STATION/POSITION SKY/WX   TEMP    WIND        PRES    VSBY  WAVE
                          AIR SEA DIR/SP/G                  HT/PER
                          (F)     (DEG/KT/KT) (MB)    (MI)  (FT/S)
HARRISON CRIB              41      10/  1/  1   N/A
BURNHAM HARBOR             42      10/  3/  4   N/A
CALUMET HARBOR             41     360/  5/  6 1027.7F
BURNS HARBOR               42      70/  7/  9 1028.8R
MICHIGAN CITY              42      20/  7/  8   N/A
$$

ILZ025>027-034>036-040-047-049-050-058-095>099-220200-
WEST-CENTRAL ILLINOIS

CITY           SKY/WX    TMP DP  RH WIND       PRES   REMARKS
QUINCY         CLOUDY    58  28  32 E8        30.25R
GALESBURG*     FAIR      58  32  37 E7        30.31R
MACOMB*        CLOUDY    53  31  43 E9        30.31R
JACKSONVILLE*  CLOUDY    56  29  36 NE13      30.26R
PITTSFIELD*    CLOUDY    59  31  34 E5        30.25R
$$

ILZ028>032-037-038-041>044-048-051>054-059>061-220200-
CENTRAL ILLINOIS

CITY           SKY/WX    TMP DP  RH WIND       PRES   REMARKS
PONTIAC        FAIR      52  33  48 E10       30.34R
BLOOMINGTON    MOCLDY    53  29  39 E17       30.30R
DECATUR        FAIR      55  30  38 E13       30.27R
PEORIA         FAIR      55  31  39 E14G21    30.31R
LACON*         FAIR      52  31  45 NE8       30.32R
LINCOLN*       FAIR      55  32  41 CALM      30.30R
SPRINGFIELD    FAIR      58  30  34 E9        30.27R
TAYLORVILLE    FAIR      57  29  35 E14       30.27R
$$

ILZ033-039-045-046-055>057-062-063-220200-
EAST-CENTRAL ILLINOIS

CITY           SKY/WX    TMP DP  RH WIND       PRES   REMARKS
CHAMPAIGN      MOCLDY    55  30  38 E14       30.28S
DANVILLE*      FAIR      54  29  39 E9        30.28S
RANTOUL*       MOCLDY    56  32  40 E14       30.30R
MATTOON        MOCLDY    56  32  40 E13       30.27R
PARIS*         FAIR      55  32  42 E7        30.30R
$$

ILZ079-100>102-220200-
SOUTHWEST ILLINOIS

CITY           SKY/WX    TMP DP  RH WIND       PRES   REMARKS
ALTON          CLOUDY    59  36  41 NE12      30.20F
BELLEVILLE     CLOUDY    61  36  40 E10G17    30.16F
CAHOKIA*       CLOUDY    62  33  33 E9        30.18F
SPARTA*        CLOUDY    61  39  44 E16G22    30.17F
$$

ILZ064>066-069>071-074>076-080>082-084>086-088>090-092>094-220200-
SOUTH-CENTRAL ILLINOIS

CITY           SKY/WX    TMP DP  RH WIND       PRES   REMARKS
CARBONDALE     FAIR      63  35  35 E8        30.19F
CAIRO*         FAIR      64  41  42 NE8       30.16F
EFFINGHAM*     FAIR      59  34  39 E7        30.29R
MARION         FAIR      63  28  26 NE8       30.20F
MT. VERNON       N/A     59  34  39 NE7       30.23S
CENTRALIA*     CLOUDY    61  38  42 E8        30.22F
SALEM*         FAIR      62  33  33 NE3       30.25R
METROPOLIS*    FAIR      65  37  34 NE3       30.19S
$$

ILZ067-068-072-073-078-083-087-091-220200-
SOUTHEAST ILLINOIS

CITY           SKY/WX    TMP DP  RH WIND       PRES   REMARKS
LAWRENCEVILLE  FAIR      60  29  30 NE15      30.27R
FLORA*         FAIR      62  34  35 CALM      30.26R
FAIRFIELD*     FAIR      60  35  39 NE3       30.23S
HARRISBURG*    FAIR      60  39  46 CALM      30.22S
ROBINSON*      FAIR      57  30  35 E10       30.28R
CARMI*         FAIR      58  41  53 N7        30.23R
$$

ABBREVIATIONS USED IN REMARKS
   TC - TEMPERATURE IN CELSIUS
  WCI - WIND CHILL INDEX
   HX - HEAT INDEX
  VSB - VISIBILITY
$$





USA.gov is the U.S. government's official web portal to all federal, state and local government web resources and services.